Location: Hernandez
(10.3704°N, 67.2181°W)
Time: 18:10:19
(UTC+00:00)

DELTA 2 DEB (DPAF) - Pass Details

Date: 13 April 2024
Orbit: 597 x 601 km, 98.4° (Epoch: 22 May)

Event Time Altitude Azimuth Distance (km) Brightness Sun altitude
Rises 23:44:43 0° 14° (NNE) 2,829 7.5 -16.5°
Reaches altitude 10° 23:46:52 10° 15° (NNE) 1,929 6.6 -17.0°
Maximum altitude 23:51:03 78° 101° (E) 612 3.8 -18.0°
Drops below altitude 10° 23:55:15 10° 189° (S) 1,934 6.5 -19.0°
Sets 23:57:25 0° 190° (S) 2,838 7.4 -19.5°
